Tracking 29489 objects as of 10-Sep-2024
HD Live streaming from Space Station
objects crossing your sky now

STARLINK-1538

Track STARLINK-1538 now!
10-day predictions
STARLINK-1538 is classified as:


NORAD ID: 46071
Int'l Code: 2020-055AW
Perigee: 553.5 km
Apogee: 555.3 km
Inclination: 53.1 °
Period: 95.6 minutes
Semi major axis: 6925 km
RCS: Unknown
Launch date: August 7, 2020
Source: United States (US)
Launch site: AIR FORCE EASTERN TEST RANGE (AFETR)
Your satellite tracking list
Your tracking list is empty




NASA's NSSDC Master Catalog

Two Line Element Set (TLE):
1 46071U 20055AW  24253.60080329  .00014527  00000-0  99235-3 0  9994
2 46071  53.0561  28.1055 0001307  37.8775 322.2306 15.06392143227002
Source of the keplerian elements: AFSPC